Location: Bonny Doon Airfield
(37.0704°N, 122.1252°W)
Time: 03:14:55
(UTC-07:00)

Vanguard 2 Rocket - All Passes

Search period start: 21 October 2017 00:00
Search period end: 31 October 2017 00:00
Orbit: 555 x 3327 km, 32.9° (Epoch: 20 October)

Date Brightness Start Highest point End Pass type
(mag) Time Alt. Az. Time Alt. Az. Time Alt. Az.
21 Oct - 11:53:38 10° SSW 11:57:37 29° SSE 12:03:20 10° E daylight
21 Oct - 14:04:29 10° WSW 14:10:17 65° S 14:20:38 10° E daylight
21 Oct - 16:16:32 10° W 16:24:34 61° S 16:38:56 10° ESE daylight
21 Oct - 18:29:53 10° W 18:40:04 38° SSW 18:55:34 10° SSE visible
21 Oct - 20:48:24 10° WSW 20:56:18 15° SW 21:05:30 10° S visible
22 Oct - 10:56:08 10° S 10:58:53 16° SE 11:02:12 10° ESE daylight
22 Oct - 13:06:03 10° WSW 13:10:59 55° SSE 13:19:11 10° E daylight
22 Oct - 15:17:46 10° W 15:24:34 64° S 15:36:56 10° ESE daylight
22 Oct - 17:30:25 10° W 17:39:28 44° SSW 17:54:21 10° SE daylight
22 Oct - 19:46:09 10° WSW 19:55:23 21° SSW 20:07:19 10° S visible
23 Oct - 12:07:44 10° SW 12:11:56 40° SSE 12:18:12 10° E daylight
23 Oct - 14:19:09 10° W 14:24:55 65° S 14:35:10 10° ESE daylight
23 Oct - 16:31:20 10° W 16:39:11 50° SSW 16:52:47 10° SE daylight
23 Oct - 18:45:28 10° W 18:54:37 27° SSW 19:07:38 10° SSE visible
24 Oct - 11:09:37 10° SSW 11:13:06 26° SSE 11:17:34 10° E daylight
24 Oct - 13:20:37 10° WSW 13:25:33 61° S 13:33:48 10° E daylight
24 Oct - 15:32:30 10° W 15:39:12 55° SSW 15:51:08 10° ESE daylight
24 Oct - 17:45:38 10° W 17:54:04 32° SSW 18:07:08 10° SSE daylight
24 Oct - 20:05:01 10° SW 20:09:58 12° SW 20:15:34 10° SSW visible
25 Oct - 10:11:58 10° S 10:14:21 15° SSE 10:16:58 10° ESE daylight
25 Oct - 12:22:08 10° WSW 12:26:25 51° SSE 12:32:54 10° E daylight
25 Oct - 14:33:50 10° W 14:39:34 59° S 14:49:35 10° ESE daylight
25 Oct - 16:46:20 10° W 16:53:49 38° SSW 17:06:09 10° SE daylight
25 Oct - 19:02:13 10° WSW 19:09:15 17° SSW 19:18:14 10° S visible
26 Oct - 11:23:44 10° SW 11:27:30 37° SSE 11:32:28 10° E daylight
26 Oct - 13:35:16 10° W 13:40:11 60° S 13:48:21 10° ESE daylight
26 Oct - 15:47:22 10° W 15:53:52 43° SSW 16:04:56 10° SE daylight
26 Oct - 18:01:30 10° WSW 18:08:45 22° SSW 18:18:54 10° SSE daylight
27 Oct - 10:25:25 10° SW 10:28:41 25° SSE 10:32:22 10° ESE daylight
27 Oct - 12:36:43 10° WSW 12:41:01 56° S 12:47:32 10° E daylight
27 Oct - 14:48:37 10° W 14:54:13 48° SSW 15:03:45 10° ESE daylight
27 Oct - 17:01:43 10° WSW 17:08:30 26° SSW 17:18:45 10° SSE daylight
28 Oct - 09:27:21 10° SSW 09:29:52 16° SSE 09:32:21 10° ESE daylight
28 Oct - 11:38:09 10° WSW 11:42:02 47° S 11:47:13 10° E daylight
28 Oct - 13:49:59 10° W 13:54:50 52° S 14:02:45 10° ESE daylight
28 Oct - 16:02:28 10° W 16:08:33 31° SSW 16:18:12 10° SE daylight
28 Oct - 18:19:21 10° SW 18:23:31 13° SSW 18:28:26 10° S daylight
29 Oct - 08:30:43 10° SSE 08:30:53 10° SSE 08:31:04 10° SSE daylight
29 Oct - 10:39:32 10° SW 10:43:10 36° SSE 10:47:18 10° E daylight
29 Oct - 12:51:24 10° W 12:55:39 54° S 13:02:05 10° ESE daylight
29 Oct - 15:03:33 10° W 15:08:54 35° SSW 15:17:30 10° SE daylight
29 Oct - 17:18:06 10° WSW 17:23:16 16° SSW 17:30:04 10° S daylight
30 Oct - 09:40:53 10° SW 09:44:19 26° SSE 09:47:42 10° ESE daylight
30 Oct - 11:52:45 10° WSW 11:56:38 52° S 12:01:51 10° ESE daylight
30 Oct - 14:04:48 10° W 14:09:30 40° SSW 14:16:53 10° SE daylight
30 Oct - 16:18:10 10° WSW 16:23:19 20° SSW 16:30:33 10° SSE daylight
